Vertical_Velocity
-1 -1 -0 1 -0 -1 -2 -1 -2 4 5 -0 2 -2 0 1 -1 -0 1 3 1 -2 -1 2 4 3 -2 -1 -2 -1 -1 -0 -3 -2 -1 0 -1 -0
-0 -2 -2 -0 -0 -0 -0 -1 -1 0 7 1 0 3 -2 4 1 1 1 4 2 1 3 2 -1 3 0 -0 -1 -1 -1 -1 -0 -2 -2 -2 -2 -1
-0 1 -1 1 -1 1 -1 -2 -0 0 4 -2 1 2 2 0 1 0 2 3 0 -1 2 -2 -1 -3 -2 -1 1 1 -3 -2 -2 -1 -3 -2 -2 -1
-1 1 -0 -2 2 -2 -1 2 1 -1 1 4 0 0 3 6 4 6 2 -1 4 -0 1 -1 7 -2 -3 1 -2 -1 -1 -1 -0 -0 1 1 -0 -0
-2 2 -0 -2 1 1 -1 2 0 -3 -0 3 -1 3 4 1 2 -1 4 -2 -5 -3 3 6 2 -2 -1 -1 0 -2 -1 -1 1 2 1 1 -2 -1
0 0 -3 2 -1 -2 -4 -1 2 1 -2 4 4 2 2 2 5 2 -2 -1 -3 -0 1 4 2 -3 -2 -3 -0 -2 1 2 2 0 -1 1 -1 -2
-2 -1 -3 -4 -4 -0 -1 2 -0 2 -1 2 5 6 5 1 -0 -10 1 -3 3 5 0 7 3 -1 1 -3 1 1 1 1 0 0 -1 1 1 1
-0 -2 -2 -0 -2 0 2 1 1 2 2 6 6 8 12 6 -10 -6 6 8 4 5 1 -1 -6 3 3 1 3 2 0 0 1 -0 -2 -1 -2 -1
-1 -1 -1 1 1 0 2 0 3 -1 -0 -1 1 3 6 -4 -4 8 7 7 0 -1 1 3 -2 2 0 3 1 2 2 -1 -2 -2 -2 -2 -1 0
2 1 -0 1 2 1 -1 -0 2 2 3 1 -4 0 3 10 11 2 6 1 2 1 1 2 -0 1 2 4 3 0 0 1 -1 -1 -1 -2 -1 0
2 -1 -2 -3 -0 -1 -4 0 -1 2 -2 1 -1 -2 4 2 2 4 4 3 1 4 -2 2 7 5 4 6 4 -0 0 2 -2 -2 -2 -3 -1 0
-1 -2 1 2 2 3 1 -4 2 0 -2 -1 -0 -0 -1 -1 3 8 2 6 2 1 6 1 0 -2 3 2 -0 2 -0 -1 -3 -1 -2 -2 -2 1
-1 1 0 1 1 1 -1 -3 -1 2 3 -1 3 5 2 5 9 4 5 5 6 5 3 1 1 -0 1 4 1 -3 -2 -2 1 0 1 -0 -4 -4
0 -2 -0 -2 -1 -3 -2 -1 -0 0 2 2 4 6 3 3 2 3 5 3 1 1 2 1 -0 -0 2 -1 -1 -1 2 2 2 3 0 -0 -5 -3
1 1 1 2 2 4 2 0 3 5 6 3 1 0 3 3 -1 -1 2 2 2 2 2 2 1 2 3 2 1 1 -0 1 0 1 -1 -4 -4 -6
-2 -1 -2 -3 -3 2 -2 -3 -4 -2 -1 -3 -3 -3 -1 -1 -2 -1 1 2 1 2 2 1 1 1 1 -1 -1 -0 1 -2 -1 2 3 -3 -6 -6
-1 -0 -1 -2 -0 0 -0 1 2 0 0 1 2 2 3 2 2 -0 2 -0 2 1 1 -0 -0 1 -0 -2 -3 -0 0 1 1 0 2 1 -16 -6
-0 2 2 -3 0 1 1 -0 1 -1 2 2 1 1 -1 1 1 -1 1 -0 1 1 -0 -1 0 1 -0 -2 -2 1 2 2 -2 -4 -2 3 -1 -11
2 5 -3 -4 -1 -2 -0 -1 -2 -2 -2 -1 -1 -0 1 3 4 -1 0 -0 -1 0 1 -0 0 -0 2 -0 -0 1 1 -2 -6 -8 -0 -0 6 -3
3 6 4 3 -3 3 1 0 -2 -4 -1 -2 -0 -2 -5 -4 -1 -2 -2 -1 0 2 -1 1 3 2 2 1 -0 -0 -0 -2 -2 -2 1 -6 -3 -6
6 2 0 1 -2 4 -1 0 1 1 1 -1 -5 -6 -8 -6 -5 -5 -4 -1 0 -0 -0 1 1 1 0 2 -1 -5 0 2 -1 -3 -1 2 6 1
3 6 5 5 2 -1 0 -1 2 -1 -3 -3 -6 -4 -4 -4 -5 -6 -3 -1 -3 -1 -0 -1 0 1 0 -1 2 0 -4 -7 1 -3 -1 -1 -1 6
5 6 4 1 3 4 -1 -2 -4 -4 -6 -3 -0 -1 -1 3 2 -0 0 0 1 3 1 -0 2 3 -3 1 0 3 1 -1 -3 -7 -4 -1 0 -1
Height
5766 5767 5769 5771 5773 5774 5774 5776 5778 5781 5784 5783 5784 5785 5786 5787 5788 5789 5790 5789 5789 5788 5787 5784 5782 5779 5775 5772 5767 5764 5760 5754 5749 5743 5736 5733 5729 5724
5757 5758 5759 5761 5762 5764 5765 5766 5768 5770 5774 5775 5775 5775 5776 5777 5777 5778 5778 5778 5778 5777 5776 5773 5769 5767 5763 5760 5757 5753 5748 5742 5737 5731 5726 5722 5718 5713
5746 5748 5749 5750 5752 5753 5755 5756 5757 5759 5761 5762 5764 5765 5766 5766 5766 5767 5768 5768 5766 5764 5763 5760 5758 5755 5753 5750 5745 5740 5734 5729 5724 5719 5715 5710 5706 5701
5735 5737 5738 5739 5740 5742 5743 5745 5745 5746 5747 5750 5751 5753 5754 5755 5756 5757 5757 5756 5755 5752 5750 5748 5748 5744 5741 5736 5732 5726 5721 5716 5711 5707 5702 5699 5694 5688
5723 5726 5726 5727 5728 5730 5731 5733 5734 5733 5734 5735 5737 5740 5740 5742 5744 5744 5743 5741 5739 5738 5738 5738 5734 5730 5726 5722 5717 5711 5706 5703 5700 5696 5691 5687 5682 5677
5713 5714 5714 5715 5717 5718 5719 5721 5721 5722 5722 5723 5724 5725 5726 5728 5729 5729 5726 5727 5726 5726 5726 5724 5720 5716 5713 5709 5704 5700 5696 5692 5688 5684 5679 5675 5670 5665
5701 5702 5703 5704 5705 5707 5708 5709 5709 5709 5710 5710 5711 5711 5712 5712 5713 5711 5712 5713 5715 5714 5712 5710 5706 5703 5699 5696 5692 5690 5685 5681 5677 5673 5668 5663 5658 5653
5689 5690 5690 5692 5692 5693 5694 5695 5696 5697 5697 5698 5698 5697 5696 5697 5696 5696 5698 5701 5703 5701 5696 5695 5693 5689 5686 5682 5681 5679 5674 5670 5666 5661 5656 5651 5646 5639
5676 5677 5678 5680 5680 5681 5682 5682 5683 5683 5683 5683 5684 5683 5682 5682 5682 5685 5689 5688 5686 5685 5682 5681 5680 5677 5673 5672 5670 5666 5662 5658 5654 5649 5645 5640 5635 5630
5665 5666 5666 5667 5668 5668 5668 5668 5669 5669 5670 5669 5670 5669 5670 5671 5673 5674 5674 5673 5673 5672 5671 5670 5668 5665 5662 5660 5657 5654 5650 5646 5641 5637 5633 5628 5624 5618
5653 5653 5654 5655 5656 5656 5656 5656 5656 5656 5655 5655 5656 5656 5658 5659 5660 5660 5662 5661 5661 5660 5659 5659 5657 5655 5652 5649 5645 5642 5638 5634 5629 5625 5621 5617 5612 5606
5640 5641 5642 5643 5643 5644 5644 5644 5645 5645 5644 5645 5645 5646 5647 5648 5649 5650 5650 5650 5650 5649 5649 5647 5645 5642 5640 5637 5634 5630 5626 5622 5618 5614 5609 5604 5599 5594
5630 5631 5631 5631 5632 5633 5633 5633 5634 5633 5635 5635 5636 5638 5637 5639 5641 5639 5639 5639 5638 5638 5637 5634 5632 5630 5628 5625 5621 5618 5615 5611 5606 5602 5597 5591 5585 5580
5619 5620 5621 5622 5623 5622 5622 5623 5624 5625 5627 5627 5629 5630 5629 5629 5630 5629 5628 5626 5626 5626 5624 5623 5621 5619 5616 5614 5611 5606 5602 5599 5594 5589 5583 5577 5572 5566
5608 5609 5610 5611 5613 5614 5615 5615 5615 5616 5617 5618 5618 5618 5618 5618 5618 5617 5617 5617 5616 5614 5612 5611 5609 5607 5604 5601 5598 5595 5591 5587 5583 5577 5571 5565 5559 5553
5598 5600 5601 5602 5602 5602 5603 5603 5605 5606 5606 5607 5607 5607 5607 5608 5608 5608 5607 5606 5605 5604 5602 5600 5598 5596 5593 5590 5587 5584 5580 5576 5572 5567 5560 5551 5544 5539
5588 5590 5591 5592 5593 5593 5594 5595 5595 5596 5597 5598 5599 5599 5599 5598 5599 5598 5597 5597 5595 5593 5591 5589 5587 5585 5582 5579 5576 5573 5569 5565 5561 5555 5549 5538 5528 5524
5575 5578 5581 5582 5583 5584 5584 5585 5587 5588 5589 5589 5589 5589 5589 5589 5589 5588 5587 5585 5584 5582 5581 5579 5576 5573 5570 5568 5565 5562 5558 5553 5548 5543 5538 5529 5516 5507
5562 5565 5568 5570 5571 5573 5574 5575 5576 5577 5579 5580 5580 5580 5579 5579 5578 5577 5575 5574 5573 5571 5569 5567 5564 5562 5559 5556 5553 5549 5545 5540 5535 5529 5523 5515 5505 5494
5548 5552 5554 5556 5558 5560 5562 5563 5565 5566 5568 5568 5569 5568 5568 5567 5567 5566 5564 5563 5561 5559 5556 5554 5552 5549 5546 5543 5540 5537 5533 5528 5522 5516 5509 5500 5490 5480
5534 5537 5540 5541 5544 5546 5548 5550 5551 5553 5555 5555 5554 5554 5554 5553 5553 5552 5552 5550 5548 5546 5543 5541 5538 5535 5533 5530 5527 5522 5522 5515 5508 5502 5496 5489 5479 5466
5518 5521 5523 5526 5529 5531 5533 5534 5535 5536 5537 5538 5538 5538 5537 5537 5536 5536 5535 5534 5533 5532 5530 5527 5524 5521 5518 5515 5512 5507 5503 5500 5495 5489 5484 5477 5469 5461
5502 5504 5506 5508 5511 5513 5515 5516 5518 5519 5520 5520 5520 5520 5520 5520 5518 5518 5518 5517 5517 5516 5514 5512 5509 5506 5502 5500 5496 5493 5488 5483 5477 5472 5469 5463 5456 5448